Showing default

INMARSAT 5-F2, 40384

Orbit data source: Space-Track

INMARSAT 5-F2, 40384 is a payload satellite owned by INMARSAT-Ltd (UK) in GEO that was launched on Sun, 01 Feb 2015 UTC via a PROTON-M/BRIZ-M launch vehicle from the Tyuratam Missile And Space Complex (TTMTR). Payload-class satellites include a variety of spacecraft equipped with specific instruments for various scientific and technological missions. These include communications satellites like Starlink; space stations such as the ISS; scientific satellites like the Hubble; Earth observation satellites from companies like Planet Labs, Umbra, and HawkEye 360; GPS; miniature CubeSats for education and research; and military/defense satellites.

Loading next visibility...
Identifier
40384, 2015-005A
Orbit
GEO
Country
Flag of IMIM
Related business
Manufacturer
Boeing/ES
Mission
Operational Commercial Communications
Bus & Motor
BSS-702HP, R-4D
Mass
6,070 kg wet, 3,700 kg dry
Launch date (UTC)
2015-02-01 (11 years ago)
Launch vehicle
PROTON-M/BRIZ-M
Launch site
Tyuratam Missile And Space Complex (TTMTR)
Object type
Payload
Rocket body
Debris
Shape & HBR
Box + 2 Pan, 16.9 m
Radar Cross Section
53.751 m², Large (>1 m²)

Expand to show TLE details & history
Last TLE update: 2 days ago

TLE from 2 days ago
0 INMARSAT 5-F2
1 40384U 15005A   26013.26502977 -.00000267  00000-0  00000+0 0  9995
2 40384   0.0183  45.5887 0000342 316.5217 151.0454  1.00272818 39443
Epoch: 2026-01-13T06:21Z
TLE epoch observation values (Epoch: 2026-01-13T06:21:38.572Z)
Latitude
0.03563°
Longitude
-54.99021°
Altitude
35,787.05 km
Speed
3.075 km/s
True Right ascension
10h 12m 40s
True Declination
0° 02' 08"
Sunlit
Object was in daylight at epoch
Visualization orbit readout
Latitude
Unknown
Longitude
Unknown
Altitude
Unknown
Speed
Unknown
Apparent Right ascension
Unknown
Apparent Declination
Unknown
Sunlit
N/A
Visualization observer readout
Local Sidereal Time
12:22:01
Azimuth
Unknown
Elevation
Unknown
Doppler factor
Unknown
Orbital elements
Apogee altitude
35,788.818 km
Perigee altitude
35,785.934 km
Semi-major axis
42,165.513 km
Eccentricity
0.00003
Inclination
0.0183°
RAAN
45.5887°
Arg. of periapsis
316.5217°
True anomaly
151.0473°
Mean anomaly
151.0454°
Eccentric anomaly
151.04635°
Mean motion
0.25067 °/min
Orbital period
1,436.14 mins
BSTAR
0
Loading maneuver chart data...
Computing Atmospheric mass density...
Loading historical data...
Loading historical data...
Loading historical data...
Loading historical data...
Loading historical data...
Loading historical data...
Loading historical data...
Other satellites on launch #5 in the year 2015 (2015-02-01 UTC)

Documentation

Showing up to 5 results
|